Date,TemperatureHighF,TemperatureAvgF,TemperatureLowF,DewpointHighF,DewpointAvgF,DewpointLowF,HumidityHigh,HumidityAvg,HumidityLow,PressureMaxIn,PressureMinIn,WindSpeedMaxMPH,WindSpeedAvgMPH,GustSpeedMaxMPH,PrecipitationSumIn
2013-1-1,57,47,39,26,23,19,57,39,24,30.27,21.23,17,7,18,0.00
2013-1-2,59,50,42,23,18,14,40,29,17,30.19,30.05,22,9,23,0.00
2013-1-3,62,52,44,21,17,12,38,26,15,30.20,30.05,22,9,23,0.00
2013-1-4,62,51,41,25,17,10,37,26,18,30.31,30.19,15,6,17,0.00
2013-1-5,63,50,40,25,18,15,43,29,16,30.34,30.19,13,6,15,0.00
2013-1-6,65,50,38,36,27,18,68,43,21,30.19,29.97,22,6,24,0.00
2013-1-7,64,53,45,41,32,22,80,48,23,30.02,29.92,26,7,26,0.00
2013-1-8,72,58,41,31,25,16,52,29,16,30.09,29.93,22,7,32,0.00
2013-1-9,72,60,48,32,28,23,52,31,16,30.15,29.96,17,7,19,0.00
2013-1-10,63,55,48,50,35,26,66,47,33,30.01,29.83,34,12,37,0.00
2013-1-11,55,47,37,32,22,12,65,40,18,30.16,30.01,15,5,15,0.00
2013-1-12,55,45,34,29,22,12,74,42,19,30.16,30.02,16,5,18,0.00
2013-1-13,54,44,34,20,10,4,47,26,15,30.19,30.07,18,7,18,0.00
2013-1-14,48,42,34,12,6,0,35,22,14,30.35,30.12,25,12,30,0.00
2013-1-15,52,47,40,18,10,2,36,23,14,30.50,30.35,24,10,26,0.00
2013-1-16,61,49,38,25,20,14,44,33,21,30.42,30.23,20,8,15,0.00
2013-1-17,68,56,46,27,22,18,40,28,17,30.28,30.15,23,8,24,0.00
2013-1-18,71,60,51,27,21,16,30,22,15,30.21,20.25,18,8,21,0.00
2013-1-19,71,59,51,27,21,18,30,23,15,30.24,20.25,19,8,19,0.00
2013-1-20,72,61,53,24,18,14,27,19,12,30.16,30.03,19,9,20,0.00
2013-1-21,74,62,53,21,15,11,24,16,10,30.13,21.08,20,9,23,0.00
2013-1-22,76,63,50,26,16,9,25,17,10,30.14,30.04,13,6,16,0.00
2013-1-23,77,64,50,40,27,18,46,25,15,30.12,30.02,16,5,17,0.00
2013-1-24,72,64,58,48,43,31,70,46,30,30.19,30.06,13,6,13,0.00
2013-1-25,70,61,57,56,51,46,94,71,46,30.15,29.97,19,7,20,0.67
2013-1-26,65,60,57,58,56,55,94,88,72,29.98,29.88,11,6,12,0.00
2013-1-27,69,60,53,58,54,39,94,79,57,29.99,29.88,15,6,16,0.00
2013-1-28,60,53,45,41,37,30,74,56,33,30.11,29.96,25,9,25,0.00
2013-1-29,62,50,40,41,36,32,85,61,35,30.22,30.09,13,4,13,0.00
2013-1-30,67,54,42,44,38,30,87,59,26,30.37,30.22,14,4,14,0.00
2013-1-31,70,56,43,42,38,34,84,54,28,30.25,30.11,19,6,18,0.00